Location: Kawakawa
(35.3830°S, 174.0670°E)
Time: 09:01:15
(UTC+13:00)

Cosmos 1707 Rocket - Pass Details

Date: 24 January 2019
Orbit: 604 x 632 km, 82.5° (Epoch: 16 February)

Event Time Altitude Azimuth Distance (km) Brightness Sun altitude
Exits shadow 22:55:33 56° 122° (ESE) 734 3.8 -23.5°
Drops below altitude 10° 22:59:20 10° 166° (SSE) 1,984 6.6 -24.0°
Sets 23:01:35 0° 169° (S) 2,899 7.5 -24.3°
